Home   Weather   Burney   Past weeks
Flag for USA

Past Weather in Burney, California, USA — Yesterday and Last 2 Weeks

Now
77 °F

Passing clouds.


Feels Like: 78 °F
Forecast: 71 / 46 °F
Wind: No wind

Location: Redding Municipal Airport

Current Time: May 23, 2019 at 9:01:16 pm

Latest Report: May 23, 2019 at 7:53 pm


Visibility: 10 mi

Pressure: 29.78 "Hg (26.70 "Hg at 952m altitude)

Humidity: 35%

Dew Point: 47 °F

Location of BurneyLocation

Past Weather in Burney — Graph

°F

Burney Temperature Yesterday

Maximum temperature yesterday: 79 °F (at 3:53 pm)
Minimum temperature yesterday: 47 °F (at 4:53 am)
Average temperature yesterday: 64 °F

High & Low Weather Summary for the Past Weeks

 TemperatureHumidityPressure
High92 °F (May 10, 3:53 pm)97% (May 18, 8:53 pm)30.06 "Hg (May 18, 8:53 pm)
Low47 °F (May 22, 4:53 am)8% (May 10, 3:53 pm)29.57 "Hg (May 15, 10:53 pm)
Average64 °F60%29.81 "Hg
* Reported May 8 7:53 pm — May 23 7:53 pm, Burney. Weather by CustomWeather, © 2019

Note: Actual official high and low records may vary slightly from our data, if they occured in-between our weather recording intervals... More about our weather records

Advertising

Burney Weather History for the Previous 24 Hours

Scroll right to see more
 ConditionsComfort  
Time TempWeatherWind HumidityBarometerVisibility
7:53 pm
Thu, May 23
77 °FPassing clouds.No wind35%29.78 "Hg10 mi
6:53 pm79 °FSunny.3 mph26%29.76 "Hg10 mi
5:53 pm82 °FSunny.7 mph22%29.75 "Hg10 mi
4:53 pm82 °FSunny.7 mph22%29.76 "Hg10 mi
3:53 pm81 °FSunny.12 mph23%29.76 "Hg10 mi
2:53 pm80 °FSunny.12 mph25%29.77 "Hg10 mi
1:53 pm82 °FPassing clouds.16 mph24%29.77 "Hg10 mi
12:53 pm79 °FPartly sunny.18 mph29%29.78 "Hg10 mi
11:53 am74 °FPartly sunny.7 mph33%29.78 "Hg10 mi
10:53 am73 °FScattered clouds.14 mph34%29.78 "Hg10 mi
9:53 am73 °FScattered clouds.13 mph36%29.77 "Hg10 mi
8:53 am69 °FScattered clouds.10 mph41%29.76 "Hg10 mi
7:53 am68 °FScattered clouds.12 mph44%29.76 "Hg10 mi
6:53 am64 °FScattered clouds.10 mph49%29.75 "Hg10 mi
5:53 am61 °FSunny.7 mph56%29.75 "Hg10 mi
4:53 am61 °FClear.6 mph56%29.76 "Hg10 mi
3:53 am62 °FClear.7 mph54%29.77 "Hg10 mi
2:53 am64 °FClear.7 mph49%29.78 "Hg10 mi
1:53 am65 °FClear.7 mph47%29.79 "Hg10 mi
12:53 am66 °FClear.9 mph43%29.79 "Hg10 mi
11:53 pm
Wed, May 22
64 °FClear.3 mph49%29.81 "Hg10 mi
10:53 pm65 °FClear.5 mph51%29.81 "Hg10 mi
9:53 pm67 °FClear.8 mph45%29.80 "Hg10 mi
Weather by CustomWeather, © 2019

See weather overview